[[{"header":{"parameterUnit":"m.s-1","parameterCategory":1,"la1":30.2992,"la2":30.254,"lo1":-89.0895,"lo2":-89.0443,"dy":0.0025,"dx":0.0025,"nx":19,"ny":19,"refTime":"2026-03-14T03:00:00:Z","depth":0,"parameterNumber":2,"parameterNumberName":"U-component_of_WINDS"},"data":[0,0,0,-0.1154,-0.1154,-0.1178,-0.1178,-0.1206,-0.1207,0,0,0,0,0,0,0,0,0,0,0,-0.1145,-0.1145,-0.1154,-0.1154,-0.1178,-0.1178,-0.1206,-0.1207,0,0,0,0,0,0,0,0,0,0,0,-0.1145,-0.1145,-0.1145,-0.1155,-0.1178,-0.1178,-0.1206,-0.1189,0,0,0,0,0,0,0,0,0,0,-0.1167,-0.1156,-0.1145,-0.1145,-0.1155,-0.1178,-0.1178,-0.1189,-0.119,-0.1195,0,-0.1197,0,-0.1202,-0.1208,-0.1208,0,0,0,-0.1156,-0.1155,-0.1163,-0.1145,-0.1155,-0.1178,-0.1168,-0.119,-0.1192,-0.1197,-0.1197,-0.1198,-0.1203,-0.1208,-0.1209,-0.1225,-0.1225,0,0,-0.1155,-0.1148,-0.1161,-0.1164,-0.1159,-0.1167,-0.1169,-0.1191,-0.1191,-0.1197,-0.1199,-0.1203,-0.1209,-0.1209,-0.1225,-0.1225,0,0,0,-0.115,-0.1147,-0.1155,-0.1163,-0.1167,-0.1168,-0.1169,-0.119,-0.1193,-0.1199,-0.1203,-0.1209,-0.1209,-0.1225,-0.1225,-0.1218,0,0,0,-0.1149,-0.1144,-0.1154,-0.115,-0.1167,-0.1179,-0.1168,-0.1192,-0.1194,-0.1203,-0.1209,-0.1209,-0.1225,-0.1225,-0.1218,-0.1216,0,0,0,-0.1144,-0.1144,-0.1146,-0.115,-0.116,-0.1178,-0.1183,-0.1192,-0.1197,-0.1208,-0.1209,-0.1225,-0.1225,-0.1219,-0.1217,-0.1219,0,0,0,-0.1137,-0.1139,-0.1146,-0.1151,-0.1159,-0.1174,-0.1183,-0.1194,-0.1203,-0.1209,-0.1225,-0.1225,-0.1219,-0.1217,-0.1219,-0.122,-0.122,0,0,-0.1136,-0.1139,-0.1143,-0.1149,-0.1161,-0.1171,-0.1182,-0.1197,-0.1204,-0.1218,-0.1219,-0.1218,-0.1217,-0.1219,-0.1219,-0.1219,0,0,0,-0.114,-0.1143,-0.1148,-0.1156,-0.1167,-0.1177,-0.1191,-0.1197,-0.1209,-0.121,-0.122,-0.1219,-0.1221,-0.1222,-0.1221,-0.1224,-0.1225,-0.1225,-0.1225,-0.113,-0.114,-0.1147,-0.116,-0.1168,-0.1183,-0.119,-0.1201,-0.1208,-0.1211,-0.1215,-0.1214,-0.1214,-0.1214,-0.1216,-0.1216,-0.1216,-0.1216,-0.1216,-0.1132,-0.1137,-0.1147,-0.1157,-0.1168,-0.1177,-0.1192,-0.1197,-0.1208,-0.1211,-0.1213,-0.1216,-0.1213,-0.1216,-0.1215,-0.1215,-0.1215,-0.1215,-0.1215,-0.1126,-0.1131,-0.1138,-0.1151,-0.1161,-0.1174,-0.1184,-0.1193,-0.1202,-0.1204,-0.121,-0.121,-0.1212,-0.1206,-0.1206,-0.1206,-0.1206,-0.1206,-0.1206,-0.1118,-0.1126,-0.1133,-0.1146,-0.1153,-0.1164,-0.118,-0.1187,-0.1198,-0.1204,-0.1205,-0.1212,-0.1211,-0.1211,-0.1206,-0.1206,-0.1206,-0.1206,-0.1206,-0.1116,-0.1119,-0.1129,-0.1136,-0.1153,-0.1162,-0.1174,-0.1189,-0.1197,-0.1202,-0.1209,-0.1207,-0.121,-0.1211,-0.1211,-0.1207,-0.1207,-0.1207,-0.1207,-0.1112,-0.1115,-0.1128,-0.1139,-0.1151,-0.1163,-0.1176,-0.1189,-0.1203,-0.1209,-0.1211,-0.1211,-0.1211,-0.1215,-0.1215,-0.1215,-0.1213,-0.1213,-0.1213,-0.1112,-0.1117,-0.1125,-0.1138,-0.1152,-0.1165,-0.1177,-0.1191,-0.1207,-0.1213,-0.1214,-0.1213,-0.1214,-0.1214,-0.122,-0.1221,-0.1221,0,0]},{"header":{"parameterUnit":"m.s-1","parameterCategory":1,"la1":30.2992,"la2":30.254,"lo1":-89.0895,"lo2":-89.0443,"dy":0.0025,"dx":0.0025,"nx":19,"ny":19,"refTime":"2026-03-14T03:00:00:Z","depth":0,"parameterNumber":3,"parameterNumberName":"V-component_of_WINDS"},"data":[0,0,0,2.6769,2.6771,2.6874,2.6875,2.7009,2.701,0,0,0,0,0,0,0,0,0,0,0,2.6742,2.6743,2.6768,2.6771,2.6874,2.6875,2.7008,2.701,0,0,0,0,0,0,0,0,0,0,0,2.6742,2.6743,2.6744,2.6771,2.6874,2.6875,2.7008,2.6929,0,0,0,0,0,0,0,0,0,0,2.6828,2.6809,2.6743,2.6744,2.6772,2.6874,2.6875,2.6925,2.6934,2.6964,0,2.6994,0,2.7004,2.7019,2.702,0,0,0,2.6767,2.6801,2.6825,2.6744,2.6773,2.6874,2.6827,2.693,2.694,2.6975,2.6996,2.7,2.7006,2.702,2.7021,2.7208,2.7209,0,0,2.6762,2.6763,2.6818,2.6832,2.6819,2.6823,2.683,2.6936,2.6957,2.6996,2.7003,2.7008,2.7021,2.7022,2.7207,2.7208,0,0,0,2.6748,2.6759,2.678,2.6827,2.6845,2.6826,2.6834,2.6952,2.6959,2.7005,2.701,2.7022,2.7024,2.7206,2.7207,2.7258,0,0,0,2.6744,2.6751,2.6778,2.6779,2.6843,2.6901,2.6848,2.6952,2.6964,2.7009,2.7022,2.7025,2.7205,2.7206,2.7254,2.7282,0,0,0,2.6734,2.6749,2.6766,2.6779,2.6824,2.6899,2.6912,2.6955,2.6967,2.702,2.7025,2.7204,2.7206,2.7251,2.7276,2.7329,0,0,0,2.6723,2.6811,2.6767,2.6867,2.6823,2.6931,2.6911,2.6992,2.7043,2.7023,2.7205,2.7207,2.725,2.7273,2.7325,2.7372,2.7393,0,0,2.6835,2.6825,2.6884,2.6847,2.6963,2.6915,2.7037,2.7084,2.7087,2.7166,2.7171,2.7256,2.7276,2.7328,2.751,2.7526,0,0,0,2.6919,2.6961,2.6991,2.7041,2.7078,2.7111,2.7138,2.7154,2.7221,2.7129,2.729,2.7302,2.7333,2.7355,2.7369,2.7393,2.7218,2.7218,2.7218,2.7078,2.7078,2.7174,2.7185,2.7232,2.7258,2.7295,2.7321,2.7308,2.7345,2.7369,2.7479,2.7505,2.7515,2.7541,2.7395,2.7395,2.7395,2.7396,2.724,2.7298,2.7276,2.7361,2.7359,2.7429,2.7456,2.7443,2.7506,2.7462,2.7489,2.7439,2.7533,2.7555,2.7399,2.7399,2.7398,2.7398,2.7398,2.7342,2.737,2.7388,2.7456,2.7508,2.7516,2.7577,2.7573,2.757,2.7597,2.7618,2.7618,2.7614,2.7608,2.7608,2.7609,2.7609,2.7609,2.7609,2.7441,2.746,2.7513,2.7557,2.7586,2.7623,2.7647,2.7675,2.7704,2.7696,2.7696,2.7677,2.7544,2.7509,2.7615,2.7614,2.7613,2.7613,2.7612,2.7602,2.7564,2.7646,2.7674,2.7724,2.7773,2.7768,2.7823,2.7845,2.7874,2.7849,2.7752,2.7741,2.773,2.7701,2.7851,2.7851,2.7851,2.7851,2.7687,2.7681,2.7761,2.7806,2.7851,2.7852,2.794,2.7958,2.7971,2.7983,2.7961,2.7923,2.7912,2.7907,2.7893,2.7865,2.8054,2.8054,2.8054,2.7784,2.7781,2.7858,2.7871,2.7908,2.794,2.8021,2.8071,2.8078,2.8062,2.7992,2.7983,2.7922,2.7902,2.7884,2.7862,2.7811,0,0]}]]